星链-3166 (STARLINK-3166 )

导读 | 豆包AI

STARLINK-3166是美国太空探索技术公司(SpaceX)星链星座的卫星,由美国于2022年2月3日发射,属于星链卫星互联网项目。星链项目旨在构建全球卫星互联网星座,为全球提供低时延、高带宽的互联网接入服务,该卫星入轨后将参与星座组网,补充提升星座服务覆盖能力与运行稳定性。

基本信息
目录编号:
51462
目录名称:
STARLINK-3166
国际标识:
2022-010G
轨道中心:
EARTH
卫星名称:
星链-3166
卫星全名:
星链-3166 (STARLINK-3166 )
卫星状态:
在轨 (已飞行1500 天)
发射日期:
2022-02-03 UTC
国别 :
美国 (US)
星等 :
--
轨道信息
数据来源 国际轨道数据 AOE轨道数据
星历时间 2026-03-14T03:23:15+0800
1天前
查看轨道信息
2026-03-14T03:00:00+0800
1天前
查看轨道信息
半长轴 6917.884km 6917.87km
偏心率 0.0001252 0.0001631
轨道倾角 53.217° 53.220°
近地点辐角 92.182° 81.917°
升交点赤经 260.643° 260.715°
平近点角 267.932° 190.498°
近地点 538.88km 538.604km
远地点 540.614km 540.862km
周期 95.438分钟 95.437分钟
每日圈数 15.08839 15.088435
详细信息
固有亮度:
5
最大亮度:
2.5
卫星平台:
Starlink v1.5
覆盖范围:
全球
运营商:
太空探索技术公司
运营商所在国:
美国
制造商(研发单位):
太空探索技术公司
制造商所在国:
美国
使用方式:
暂无
卫星简介
星链(Starlink)计划是由太空探索技术公司(SpaceX)提出的一个巨型低轨卫星互联网星座项目,计划在2019年至2024年间在太空搭建由约1.2万颗卫星组成的“星链”网络,其中1584颗将部署在地球上空550千米处的近地轨道,并从2020年开始工作。该卫星仍在工作。
2D轨道图
3D轨道图
轨道高度分析图
轨道倾角分析图
轨道综合分析图
查看轨道综合分析图